KB1YTR-1 Weather Reports


Display with metric or nautical units.
time (UTC)temp
F
wind
direction
speed
MPH
gust
MPH
rain 1hr
in
rain 24hr
in
rain mn
in
humidity
%
barometer
mb
20260503213007 64 295 6.0 16.0 0.00 0.00 0.00 31 1003.1
20260503211622 64 292 5.0 17.0 0.00 0.00 0.00 33 1003.5
20260503210142 64 287 4.0 9.0 0.00 0.00 0.00 32 1003.5
20260503204907 63 302 5.0 19.0 0.00 0.00 0.00 31 1003.6
20260503203527 62 269 11.0 15.0 0.00 0.00 0.00 31 1003.7
20260503202047 63 275 6.0 12.0 0.00 0.00 0.00 31 1003.9
20260503200707 63 335 10.0 12.0 0.00 0.00 0.00 32 1004.1
20260503195402 62 292 3.0 12.0 0.00 0.00 0.00 32 1004.0
20260503194142 61 289 12.0 21.0 0.00 0.00 0.00 31 1004.5
20260503192647 62 267 3.0 8.0 0.00 0.00 0.00 29 1004.7
20260503191357 61 326 13.0 15.0 0.00 0.00 0.00 27 1004.5
20260503185942 61 266 7.0 17.0 0.00 0.00 0.00 26 1004.6
20260503184555 60 306 8.0 20.0 0.00 0.00 0.00 27 1004.8
20260503183327 62 338 7.0 11.0 0.00 0.00 0.00 26 1004.9
20260503182007 61 271 8.0 10.0 0.00 0.00 0.00 24 1005.0
20260503180628 61 340 4.0 9.0 0.00 0.00 0.00 25 1005.0
20260503175217 60 313 7.0 12.0 0.00 0.00 0.00 25 1005.3
20260503173922 59 292 1.0 14.0 0.00 0.00 0.00 26 1005.3
20260503172612 59 315 6.0 19.0 0.00 0.00 0.00 26 1005.3
20260503171257 59 306 4.0 15.0 0.00 0.00 0.00 26 1005.3
20260503131042 53 325 2.0 5.0 0.00 0.00 0.00 68 1005.3
20260503120151 48 300 1.0 5.0 0.00 0.00 0.00 72 1004.9
20260503100117 43 10 1.0 3.0 0.00 0.00 0.00 82 1005.1
20260503081557 48 224 1.0 2.0 0.00 0.00 0.00 71 1005.4
20260503080127 49 0 0.0 1.0 0.00 0.00 0.00 72 1005.5
20260503071752 49 0 0.0 2.0 0.00 0.00 0.00 74 1006.0
20260503070530 50 180 2.0 3.0 0.00 0.00 0.00 72 1005.9
20260503054047 49 0 0.0 1.0 0.00 0.00 0.00 81 1007.2
20260503052832 50 165 1.0 2.0 0.00 0.00 0.00 76 1007.2
20260503051447 50 76 1.0 2.0 0.00 0.00 0.00 78 1007.4
20260503050247 51 91 1.0 2.0 0.00 0.00 0.00 76 1007.5
20260503044827 51 0 0.0 0.0 0.00 0.00 0.00 76 1007.5
20260503043522 51 325 1.0 2.0 0.00 0.00 0.00 74 1007.7
20260503042232 51 0 0.0 1.0 0.00 0.00 0.00 75 1007.5
20260503040822 52 124 2.0 2.0 0.00 0.00 0.00 74 1007.8
20260503035612 53 262 1.0 2.0 0.00 0.00 0.00 68 1008.1
20260503034127 53 314 1.0 1.0 0.00 0.00 0.00 68 1008.3
20260503032907 54 318 3.0 5.0 0.00 0.00 0.00 66 1008.5
20260503031451 54 331 2.0 7.0 0.00 0.00 0.00 62 1008.6
20260503030147 55 283 5.0 10.0 0.00 0.00 0.00 60 1008.7
20260503024812 55 326 2.0 3.0 0.00 0.00 0.00 58 1008.7
20260503023548 56 301 3.0 5.0 0.00 0.00 0.00 56 1008.8
20260503022102 57 316 5.0 5.0 0.00 0.00 0.00 53 1008.8
20260503020602 57 303 5.0 11.0 0.00 0.00 0.00 50 1008.3
20260503015317 58 289 6.0 9.0 0.00 0.00 0.00 49 1008.5
20260503014107 58 287 6.0 11.0 0.00 0.00 0.00 47 1008.3
20260503012747 59 287 7.0 16.0 0.00 0.00 0.00 45 1008.3
20260503011417 59 296 4.0 15.0 0.00 0.00 0.00 43 1007.9
20260503010152 59 302 2.0 6.0 0.00 0.00 0.00 45 1008.2
20260503004742 59 202 3.0 4.0 0.00 0.00 0.00 43 1007.9
20260503003447 59 273 1.0 6.0 0.00 0.00 0.00 43 1008.2
20260503002242 59 196 4.0 9.0 0.00 0.00 0.00 42 1008.1
20260503000752 59 163 2.0 4.0 0.00 0.00 0.00 41 1008.5
20260502235422 59 215 4.0 5.0 0.00 0.00 0.00 42 1008.6
20260502234202 60 278 3.0 4.0 0.00 0.00 0.00 41 1008.6
20260502232752 60 289 1.0 6.0 0.00 0.00 0.00 40 1008.8
20260502231432 60 175 1.0 9.0 0.00 0.00 0.00 39 1008.8
20260502230052 61 267 2.0 6.0 0.00 0.00 0.00 39 1009.0
20260502224812 61 212 8.0 15.0 0.00 0.00 0.00 38 1009.1
20260502223612 62 264 2.0 15.0 0.00 0.00 0.00 38 1009.3
20260502222327 62 245 4.0 9.0 0.00 0.00 0.00 36 1009.4
20260502220837 62 296 7.0 17.0 0.00 0.00 0.00 36 1009.5
20260502215449 61 149 1.0 6.0 0.00 0.00 0.00 37 1009.5
20260502214058 62 234 1.0 13.0 0.00 0.00 0.00 35 1009.6